Regional Weather Roundup
Issued by NWS

Home | Current Version | Previous Version | Text Only | Print | Product List | Glossary On
Versions: 1 2 3 4 5 6 7 8 9 10 11 12 13 14 15 16 17 18 19 20 21 22 23 24 25 26 27 28 29 30 31 32 33 34 35 36 37 38 39 40 41 42 43 44 45 46 47 48 49 50
000
ASUS45 KTFX 180219
RWRMT
MONTANA HOURLY WEATHER ROUNDUP
NATIONAL WEATHER SERVICE GREAT FALLS MT
819 PM MDT WED SEP 17 2014

NOTE: "FAIR" INDICATES FEW OR NO CLOUDS BELOW 12000 FEET WITH NO
SIGNIFICANT WEATHER AND/OR OBSTRUCTIONS TO VISIBILITY.

* THESE STATIONS ARE NOT UNDER NWS QUALITY CONTROL. THEY DO NOT
   REPORT WEATHER SUCH AS PRECIPITATION OR FOG.

MTZ001>007-043-180300-
WEST OF THE DIVIDE
CITY           SKY/WX    TMP DP  RH WIND       PRES   REMARKS
KALISPELL      CLOUDY    64  54  70 CALM      29.74F
MISSOULA       CLOUDY    75  50  42 CALM      29.77S
BUTTE          CLOUDY    64  39  40 S7        29.97F
MULLAN PASS    CLOUDY    64  41  43 SW5       29.94S
* ESSEX        N/A       64  54  70 S2         N/A
* LINCOLN      N/A       72  49  44 SE1        N/A
* LOOKOUT PASS N/A       68  47  47 N/A        N/A
* POLSON       N/A       68  45  44 N/A        N/A
* RONAN APT    CLOUDY    72  48  43 N/A        N/A
* SEELEY LAKE  N/A       74  46  37 NE1        N/A
* THOMP F APT  CLOUDY    70  38  31 N2         N/A
$$

MTZ008-052>055-180300-
SOUTHWEST MONTANA
CITY           SKY/WX    TMP DP  RH WIND       PRES   REMARKS
BOZEMAN        CLOUDY    68  48  49 S5        29.91F
DILLON         PTCLDY    63  39  41 SE10      29.95S
W YELLOWSTONE  PTCLDY    57  45  64 SW5       30.09R
* THREE FORKS  CLOUDY    70  54  57 N/A        N/A
* BOULDER HILL N/A       68  36  31 S5         N/A
* MONIDA PASS  N/A       65  37  36 SE6        N/A
* RAYNOLDS PAS N/A       64  17  16 N4         N/A
* WHITEHALL    N/A       70  46  42 NE1        N/A
* WISE RIVER   N/A       68  36  31 W5G10      N/A
$$

MTZ009>010-012-014-046-048-049-054-180300-
EAST SLOPES AND CENTRAL MONTANA
CITY           SKY/WX    TMP DP  RH WIND       PRES   REMARKS
CUT BANK       CLOUDY    72  46  40 SW3       29.79S
GREAT FALLS    CLOUDY    68  52  57 S8        29.78F
HELENA         CLOUDY    72  54  53 CALM      29.82F
MALMSTROM AFB  CLOUDY    72  52  49 N/A       29.79S
* CONRAD       CLOUDY    70  63  79 N/A        N/A
* EAST GLACIER N/A       68  42  39 S1         N/A
* MONARCH      N/A       69  38  32 S6         N/A
* PENDROY      N/A       70  49  47 E1         N/A
* ROGERS PASS  N/A       62  45  54 NW3        N/A
* SAINT MARY   N/A       69  41  36 S4G9       N/A
* SWEET GRASS  N/A       75  40  28 S6         N/A
* WHITE SULPH  N/A       70  41  35 SE6G14     N/A
$$

MTZ011-013-016-021-035-040-045-047-050-051-180300-
NORTH CENTRAL MONTANA
CITY           SKY/WX    TMP DP  RH WIND       PRES   REMARKS
HAVRE          MOCLDY    68  57  68 NE7       29.74F
LEWISTOWN      CLOUDY    70  52  53 SE8       29.87S
* CHINOOK      PTCLDY    66  55  68 E3        29.75S
* FORT BENTON  CLOUDY    77  46  33 E10G16    29.74F
* CHESTER      N/A       75  47  37 SE3        N/A
* DENTON       N/A       72  50  46 SE9        N/A
* GEYSER       N/A       66  56  70 SW5        N/A
* JUDITH GAP   N/A       66  42  42 SW9        N/A
* LOMA         N/A       78  47  34 E14        N/A
$$

MTZ017>020-022>027-061-062-180300-
NORTHEAST MONTANA
CITY           SKY/WX    TMP DP  RH WIND       PRES   REMARKS
GLASGOW        PTCLDY    66  48  52 E14       29.80S
GLENDIVE       PTCLDY    61  48  62 E7        29.90R
JORDAN         PTCLDY    66  48  52 E5        29.82S
SIDNEY         CLEAR     63  45  52 CALM      29.91R
WOLF POINT     PTCLDY    64  45  50 E8        29.84S
* BEAVER HILL  N/A       62  47  58 SE12G17    N/A
* CIRCLE       N/A       66  51  59 E2         N/A
* LINDSAY DVD  N/A       61  47  60 E10        N/A
* NAVAJO       N/A       64  42  45 SE9        N/A
* SACO         N/A       68  51  55 E12        N/A
$$

MTZ028>042-056>058-180300-
SOUTHCENTRAL AND SOUTHEAST MONTANA
CITY           SKY/WX    TMP DP  RH WIND       PRES   REMARKS
BAKER          PTCLDY    57  52  83 E8        29.93R
BILLINGS       CLOUDY    75  46  36 W13       29.89R
LIVINGSTON     CLOUDY    72  41  33 SW10      29.92F
MILES CITY     PTCLDY    73  50  44 SE8       29.84R
* LAUREL APT   CLOUDY    75  45  34 W17G30     N/A
* ROUNDUP APT  CLOUDY    73  50  44 N/A        N/A
* ALZADA       N/A       68  51  55 E12        N/A
* HYSHAM       N/A       72  45  38 SE6        N/A
* LAME DEER    N/A       72  47  41 NE6        N/A
* REED POINT   N/A       72  46  40 S6         N/A
* ROSCOE HILL  N/A       64  38  38 SE11       N/A
$$

REGIONAL REPORTS...DAKOTAS
CITY           SKY/WX    TMP DP  RH WIND       PRES   REMARKS
WILLISTON      CLEAR     63  43  48 E7        29.92R
DICKINSON      CLEAR     57  48  72 SE12      29.94S
BEACH          N/A       54  48  80 SE10      29.93S
CROSBY         CLEAR     55  52  90 E10       29.95R
TIOGA          CLEAR     55  54  96 SE12      29.99R
WATFORD CITY   CLEAR     55  45  69 E6        29.92R
BISMARCK       CLEAR     55  48  77 E6        29.97R
GRAND FORKS    CLEAR     54  45  72 NE9       30.04R
FARGO          CLEAR     59  50  72 N8        30.00R
BUFFALO SD     CLEAR     63  52  68 SE12      29.88R
RAPID CITY     CLEAR     68  52  57 E13       29.95R
$$

REGIONAL REPORTS...WYOMING/IDAHO/WASHINGTON
CITY           SKY/WX    TMP DP  RH WIND       PRES   REMARKS
GILLETTE       PTCLDY    57  48  72 SW3       29.95R
SHERIDAN       PTCLDY    64  54  70 W3        29.93R
CODY           PTCLDY   N/A N/A N/A N/A        N/A
YELLOWSTONE LA MOCLDY    52  43  72 CALM      30.20R
SALMON         PTCLDY    61  46  58 SE3       29.86R
MULLAN PASS    CLOUDY    64  41  43 SW5       29.94S
SAND POINT     CLOUDY    64  57  78 CALM      29.71S
SPOKANE        CLOUDY    79  41  26 NE3       29.70F
$$

REGIONAL REPORTS...ALBERTA
CITY           SKY/WX    TMP DP  RH WIND       PRES   REMARKS
CALGARY        MOCLDY    66  45  47 E10       29.71F
LETHBRIDGE     MOCLDY    66  45  47 SW8       29.71F
MEDICINE HAT   MOCLDY    72  52  49 S3        29.69F
EDMONTON       MOCLDY    57  45  64 S5        29.64F
WATERTON GATE  N/A       61  46  58 NW1        N/A
CARDSTON       N/A       66  50  56 SW7        N/A
MILK RIVER     N/A       66  46  49 E3         N/A
$$

REGIONAL REPORTS...SASKATCHEWAN
CITY           SKY/WX    TMP DP  RH WIND       PRES   REMARKS
SWIFT CURRENT  CLEAR     61  46  58 S9        29.77S
REGINA         PTCLDY    55  48  77 SE17G23   29.90R
VAL MARIE      N/A       64  48  56 SE9        N/A
ASSINIBOIA     N/A       61  43  52 E10        N/A
CORONACH       N/A       59  43  56 SE6        N/A

$$



USA.gov is the U.S. government's official web portal to all federal, state and local government web resources and services.